Terug naar catalogus

ATLAS 5 CENTAUR DEB

LostHEO
NORAD 46662·DEBRIS·🇺🇸 United States

Gelanceerd Oct 17, 2018 vanaf Cape Canaveral Space Force Station

Loading…

Volgende Passages (komende 24 uur)

TLE

VerouderdSource: Space-Track

Epoch: Feb 23, 2021, 19:04 UTC

1 46662U 18079CQ  21054.79459369 -.00000106  00000-0  00000+0 0  9990
2 46662  10.3989 209.8041 4787921   2.2377 359.1516  1.94241116  2684

Volg ATLAS 5 CENTAUR DEB in realtime met AllMySat

Download on the App Store